DLH7H EGLL-EDDF

Flight info

Callsign DLH7H
Flight time 0h 57m
Altitude 35000
Route BPK Q295 MATCH DCT REDFA DCT TACHA DCT NOLRU DCT DIXAT DIXAT1A
Aircraft A359/H-SDE2E3GHIJ3J4J5LM1ORWXY/LB1D1

Departure

Time 2026-05-06 15:26
Airport London Heathrow Airport (EGLL)

Arrival

Time 2026-05-06 16:24
Airport Frankfurt Main Airport (EDDF)
Time Latitude Longitude Altitude Speed Heading
2026-05-06 15:01 51.46839 -0.44881 94 ft 0 kts 359°
2026-05-06 15:14 51.46829 -0.44881 92 ft 4 kts 359°
2026-05-06 15:15 51.46802 -0.44881 92 ft 4 kts 359°
2026-05-06 15:15 51.46780 -0.44880 92 ft 4 kts 346°
2026-05-06 15:15 51.46759 -0.44860 92 ft 4 kts 298°
2026-05-06 15:15 51.46752 -0.44821 93 ft 4 kts 271°
2026-05-06 15:16 51.46752 -0.44780 94 ft 4 kts 269°
2026-05-06 15:16 51.46752 -0.44749 93 ft 0 kts 269°
2026-05-06 15:19 51.46752 -0.44771 94 ft 6 kts 269°
2026-05-06 15:19 51.46751 -0.44890 96 ft 13 kts 269°
2026-05-06 15:19 51.46751 -0.45051 97 ft 16 kts 269°
2026-05-06 15:20 51.46750 -0.45243 95 ft 18 kts 270°
2026-05-06 15:20 51.46749 -0.45461 96 ft 21 kts 270°
2026-05-06 15:20 51.46749 -0.45704 92 ft 22 kts 269°
2026-05-06 15:20 51.46747 -0.45952 97 ft 23 kts 270°
2026-05-06 15:21 51.46747 -0.46202 96 ft 23 kts 270°
2026-05-06 15:21 51.46747 -0.46449 93 ft 22 kts 270°
2026-05-06 15:21 51.46746 -0.46706 96 ft 22 kts 270°
2026-05-06 15:21 51.46746 -0.46937 95 ft 20 kts 270°
2026-05-06 15:22 51.46746 -0.47170 95 ft 22 kts 270°
2026-05-06 15:22 51.46746 -0.47424 96 ft 23 kts 269°
2026-05-06 15:22 51.46745 -0.47671 96 ft 22 kts 270°
2026-05-06 15:22 51.46743 -0.47901 94 ft 20 kts 269°
2026-05-06 15:23 51.46744 -0.48058 95 ft 9 kts 270°
2026-05-06 15:23 51.46744 -0.48092 92 ft 3 kts 270°
2026-05-06 15:23 51.46744 -0.48143 95 ft 7 kts 270°
2026-05-06 15:23 51.46743 -0.48259 94 ft 13 kts 270°
2026-05-06 15:24 51.46743 -0.48423 94 ft 16 kts 270°
2026-05-06 15:24 51.46742 -0.48614 92 ft 14 kts 270°
2026-05-06 15:24 51.46710 -0.48733 94 ft 12 kts 202°
2026-05-06 15:24 51.46619 -0.48758 96 ft 14 kts 192°
2026-05-06 15:25 51.46516 -0.48776 97 ft 16 kts 161°
2026-05-06 15:25 51.46478 -0.48624 94 ft 17 kts 89°
2026-05-06 15:25 51.46480 -0.48179 95 ft 76 kts 90°
2026-05-06 15:25 51.46485 -0.46945 98 ft 143 kts 90°
2026-05-06 15:26 51.46488 -0.45137 529 ft 163 kts 89°
2026-05-06 15:26 51.46481 -0.43399 1409 ft 158 kts 89°
2026-05-06 15:26 51.46724 -0.41580 1803 ft 181 kts 60°
2026-05-06 15:26 51.47611 -0.39935 2138 ft 211 kts 45°
2026-05-06 15:27 51.48710 -0.38156 2619 ft 235 kts 47°
2026-05-06 15:27 51.49843 -0.36180 3376 ft 245 kts 47°
2026-05-06 15:27 51.50974 -0.34112 4187 ft 252 kts 49°
2026-05-06 15:27 51.51885 -0.31681 4982 ft 258 kts 66°
2026-05-06 15:28 51.52517 -0.28951 5822 ft 263 kts 70°
2026-05-06 15:28 51.53117 -0.26143 6699 ft 268 kts 70°
2026-05-06 15:28 51.53792 -0.23337 7609 ft 272 kts 62°
2026-05-06 15:28 51.54993 -0.20995 8491 ft 275 kts 36°
2026-05-06 15:29 51.56681 -0.19527 9410 ft 278 kts 23°
2026-05-06 15:29 51.58486 -0.18311 10276 ft 285 kts 20°
2026-05-06 15:29 51.60442 -0.17284 10767 ft 306 kts 15°
2026-05-06 15:29 51.62545 -0.16341 11167 ft 328 kts 14°
2026-05-06 15:30 51.64822 -0.15325 11650 ft 346 kts 15°
2026-05-06 15:30 51.67177 -0.14259 12366 ft 354 kts 15°
2026-05-06 15:30 51.69574 -0.13157 13132 ft 361 kts 16°
2026-05-06 15:30 51.71884 -0.11606 13891 ft 368 kts 30°
2026-05-06 15:31 51.73862 -0.08965 14652 ft 374 kts 49°
2026-05-06 15:31 51.75214 -0.05359 15383 ft 380 kts 68°
2026-05-06 15:31 51.75921 -0.01223 16125 ft 384 kts 78°
2026-05-06 15:32 51.76703 0.07433 17574 ft 394 kts 83°
2026-05-06 15:32 51.76998 0.11874 18306 ft 399 kts 84°
2026-05-06 15:32 51.77298 0.16350 19044 ft 403 kts 84°
2026-05-06 15:32 51.77618 0.20832 19769 ft 408 kts 83°
2026-05-06 15:33 51.78084 0.25370 20460 ft 412 kts 78°
2026-05-06 15:33 51.78716 0.29919 21143 ft 416 kts 77°
2026-05-06 15:33 51.79409 0.34485 21831 ft 420 kts 76°
2026-05-06 15:33 51.80138 0.39083 22462 ft 425 kts 75°
2026-05-06 15:34 51.80889 0.43736 22885 ft 428 kts 75°
2026-05-06 15:34 51.81645 0.48415 23355 ft 432 kts 75°
2026-05-06 15:34 51.82401 0.53136 23998 ft 436 kts 76°
2026-05-06 15:34 51.83158 0.57907 24617 ft 440 kts 76°
2026-05-06 15:35 51.83908 0.62662 25210 ft 443 kts 76°
2026-05-06 15:35 51.84669 0.67515 25819 ft 446 kts 76°
2026-05-06 15:35 51.85438 0.72441 26390 ft 450 kts 76°
2026-05-06 15:35 51.86194 0.77302 26836 ft 453 kts 76°
2026-05-06 15:36 51.86963 0.82248 26974 ft 453 kts 76°
2026-05-06 15:36 51.87731 0.87208 26983 ft 454 kts 76°
2026-05-06 15:36 51.88503 0.92204 26980 ft 455 kts 76°
2026-05-06 15:36 51.89260 0.97130 26981 ft 455 kts 76°
2026-05-06 15:37 51.90027 1.02124 26980 ft 455 kts 76°
2026-05-06 15:37 51.90787 1.07092 26970 ft 455 kts 76°
2026-05-06 15:37 51.91550 1.12091 27041 ft 457 kts 76°
2026-05-06 15:37 51.92311 1.17104 27467 ft 459 kts 76°
2026-05-06 15:38 51.93075 1.22148 28076 ft 461 kts 76°
2026-05-06 15:38 51.93830 1.27141 28609 ft 463 kts 76°
2026-05-06 15:38 51.94600 1.32245 29109 ft 466 kts 76°
2026-05-06 15:38 51.95373 1.37394 29559 ft 470 kts 76°
2026-05-06 15:39 51.96146 1.42568 30050 ft 473 kts 77°
2026-05-06 15:39 51.96919 1.47761 30490 ft 475 kts 77°
2026-05-06 15:39 51.97697 1.53000 30897 ft 478 kts 77°
2026-05-06 15:39 51.98467 1.58203 31272 ft 481 kts 77°
2026-05-06 15:40 51.99250 1.63514 31649 ft 484 kts 77°
2026-05-06 15:40 52.00036 1.68856 32002 ft 487 kts 77°
2026-05-06 15:40 52.00826 1.74242 32335 ft 490 kts 77°
2026-05-06 15:40 52.01613 1.79633 32673 ft 492 kts 77°
2026-05-06 15:41 52.02396 1.85008 33008 ft 494 kts 77°
2026-05-06 15:41 52.03185 1.90445 33445 ft 493 kts 77°
2026-05-06 15:41 52.03970 1.95871 33897 ft 492 kts 77°
2026-05-06 15:41 52.04748 2.01275 34310 ft 490 kts 77°
2026-05-06 15:42 52.05514 2.06614 34660 ft 491 kts 77°
2026-05-06 15:42 52.06289 2.12032 34917 ft 493 kts 77°
2026-05-06 15:42 52.07839 2.22933 34961 ft 493 kts 77°
2026-05-06 15:43 52.09371 2.33769 34950 ft 494 kts 77°
2026-05-06 15:43 52.10906 2.44724 34954 ft 494 kts 77°
2026-05-06 15:44 52.12549 2.55600 34952 ft 495 kts 73°
2026-05-06 15:44 52.14631 2.66205 34945 ft 494 kts 72°
2026-05-06 15:45 52.16771 2.76862 34941 ft 495 kts 72°
2026-05-06 15:45 52.18839 2.87588 34947 ft 495 kts 73°
2026-05-06 15:46 52.20842 2.98277 34948 ft 495 kts 73°
2026-05-06 15:46 52.22839 3.09033 34945 ft 495 kts 73°
2026-05-06 15:47 52.24299 3.19934 34944 ft 494 kts 86°
2026-05-06 15:47 52.23775 3.31049 34941 ft 492 kts 105°
2026-05-06 15:48 52.21567 3.41617 34933 ft 492 kts 111°
2026-05-06 15:48 52.19055 3.51918 34934 ft 492 kts 112°
2026-05-06 15:49 52.16498 3.62269 34937 ft 491 kts 112°
2026-05-06 15:49 52.13968 3.72626 34918 ft 491 kts 112°
2026-05-06 15:50 52.11467 3.82905 34915 ft 491 kts 112°
2026-05-06 15:50 52.08946 3.93232 34915 ft 491 kts 112°
2026-05-06 15:51 52.06406 4.03583 34915 ft 491 kts 112°
2026-05-06 15:51 52.03879 4.13829 34915 ft 491 kts 112°
2026-05-06 15:52 52.01326 4.24132 34916 ft 491 kts 112°
2026-05-06 15:52 51.98766 4.34409 34916 ft 491 kts 112°
2026-05-06 15:53 51.96201 4.44672 34915 ft 491 kts 112°
2026-05-06 15:53 51.93641 4.54865 34916 ft 491 kts 113°
2026-05-06 15:54 51.91474 4.63451 34906 ft 491 kts 113°
2026-05-06 15:54 51.88880 4.73686 34906 ft 491 kts 113°
2026-05-06 15:55 51.86295 4.83841 34906 ft 491 kts 113°
2026-05-06 15:55 51.78889 5.12672 34906 ft 491 kts 113°
2026-05-06 15:56 51.71266 5.41981 34897 ft 491 kts 114°
2026-05-06 15:56 51.60575 5.82458 34888 ft 491 kts 114°
2026-05-06 15:57 51.49724 6.22831 34876 ft 492 kts 114°
2026-05-06 15:57 51.39758 6.63425 34860 ft 492 kts 112°
2026-05-06 15:58 51.32692 6.91679 34856 ft 492 kts 113°
2026-05-06 15:58 51.31414 6.96749 34533 ft 489 kts 113°
2026-05-06 15:58 51.30137 7.01809 33662 ft 492 kts 113°
2026-05-06 15:59 51.28765 7.06811 32799 ft 492 kts 118°
2026-05-06 15:59 51.26965 7.11440 31933 ft 491 kts 128°
2026-05-06 15:59 51.24670 7.15479 31035 ft 490 kts 139°
2026-05-06 15:59 51.21973 7.18758 30111 ft 488 kts 149°
2026-05-06 16:00 51.18984 7.21345 29159 ft 488 kts 154°
2026-05-06 16:00 51.16080 7.23620 28382 ft 486 kts 154°
2026-05-06 16:00 51.13024 7.26005 27684 ft 481 kts 154°
2026-05-06 16:00 51.10080 7.28325 27011 ft 477 kts 154°
2026-05-06 16:01 51.07140 7.30736 26317 ft 473 kts 153°
2026-05-06 16:01 51.04233 7.33138 25629 ft 469 kts 153°
2026-05-06 16:01 51.01350 7.35527 24987 ft 464 kts 153°
2026-05-06 16:01 50.98502 7.37877 24341 ft 459 kts 153°
2026-05-06 16:02 50.95674 7.40206 23700 ft 456 kts 153°
2026-05-06 16:02 50.92863 7.42514 23059 ft 453 kts 153°
2026-05-06 16:02 50.90076 7.44800 22425 ft 449 kts 153°
2026-05-06 16:02 50.87309 7.47065 21793 ft 445 kts 153°
2026-05-06 16:03 50.84574 7.49304 21164 ft 440 kts 153°
2026-05-06 16:03 50.81889 7.51496 20572 ft 436 kts 153°
2026-05-06 16:03 50.79202 7.53687 19944 ft 433 kts 153°
2026-05-06 16:03 50.76541 7.55855 19332 ft 428 kts 154°
2026-05-06 16:04 50.73901 7.58001 18730 ft 425 kts 154°
2026-05-06 16:04 50.71280 7.60129 18133 ft 421 kts 154°
2026-05-06 16:04 50.68687 7.62234 17569 ft 417 kts 153°
2026-05-06 16:04 50.66116 7.64321 17061 ft 414 kts 154°
2026-05-06 16:05 50.63564 7.66382 16555 ft 411 kts 154°
2026-05-06 16:05 50.61055 7.68406 16057 ft 408 kts 154°
2026-05-06 16:05 50.58533 7.70444 15560 ft 405 kts 153°
2026-05-06 16:05 50.56024 7.72471 15098 ft 403 kts 154°
2026-05-06 16:06 50.53538 7.74469 14649 ft 400 kts 154°
2026-05-06 16:06 50.51064 7.76455 14183 ft 398 kts 154°
2026-05-06 16:06 50.48624 7.78413 13737 ft 396 kts 154°
2026-05-06 16:06 50.46152 7.80395 13274 ft 393 kts 154°
2026-05-06 16:07 50.43766 7.82400 12821 ft 391 kts 149°
2026-05-06 16:07 50.41559 7.84886 12447 ft 390 kts 143°
2026-05-06 16:07 50.39436 7.87524 12078 ft 387 kts 142°
2026-05-06 16:07 50.37334 7.90150 11695 ft 385 kts 142°
2026-05-06 16:08 50.35236 7.92762 11337 ft 384 kts 142°
2026-05-06 16:08 50.33169 7.95329 10977 ft 382 kts 142°
2026-05-06 16:08 50.31082 7.97910 10637 ft 379 kts 142°
2026-05-06 16:08 50.29048 8.00426 10393 ft 364 kts 142°
2026-05-06 16:09 50.27102 8.02844 10109 ft 350 kts 141°
2026-05-06 16:09 50.25441 8.05543 9725 ft 341 kts 130°
2026-05-06 16:09 50.23991 8.08448 9134 ft 345 kts 128°
2026-05-06 16:09 50.22527 8.11467 8852 ft 347 kts 128°
2026-05-06 16:10 50.21058 8.14474 8803 ft 348 kts 128°
2026-05-06 16:10 50.19588 8.17467 8791 ft 347 kts 128°
2026-05-06 16:10 50.18159 8.20495 8791 ft 347 kts 123°
2026-05-06 16:10 50.17114 8.23893 8795 ft 349 kts 108°
2026-05-06 16:11 50.16780 8.27656 8799 ft 350 kts 88°
2026-05-06 16:11 50.17045 8.31383 8797 ft 350 kts 82°
2026-05-06 16:11 50.17431 8.35146 8792 ft 350 kts 81°
2026-05-06 16:11 50.17827 8.38899 8795 ft 350 kts 81°
2026-05-06 16:12 50.18224 8.42660 8794 ft 350 kts 81°
2026-05-06 16:12 50.18613 8.46349 8794 ft 350 kts 81°
2026-05-06 16:12 50.19008 8.50080 8513 ft 345 kts 81°
2026-05-06 16:12 50.19397 8.53780 7828 ft 344 kts 81°
2026-05-06 16:13 50.19782 8.57475 7203 ft 341 kts 81°
2026-05-06 16:13 50.20157 8.61078 6595 ft 339 kts 81°
2026-05-06 16:13 50.20535 8.64708 5980 ft 335 kts 81°
2026-05-06 16:13 50.20906 8.68292 5392 ft 332 kts 81°
2026-05-06 16:14 50.21266 8.71787 5075 ft 320 kts 81°
2026-05-06 16:14 50.21611 8.75148 4837 ft 306 kts 81°
2026-05-06 16:14 50.21943 8.78373 4607 ft 294 kts 81°
2026-05-06 16:14 50.22254 8.81418 4392 ft 282 kts 81°
2026-05-06 16:15 50.22553 8.84392 4195 ft 271 kts 81°
2026-05-06 16:15 50.22843 8.87246 4031 ft 259 kts 81°
2026-05-06 16:15 50.23081 8.89958 3983 ft 243 kts 86°
2026-05-06 16:15 50.23070 8.92526 3995 ft 238 kts 92°
2026-05-06 16:16 50.22978 8.95109 3995 ft 238 kts 94°
2026-05-06 16:16 50.22876 8.97701 4002 ft 238 kts 94°
2026-05-06 16:16 50.22514 9.00213 3996 ft 238 kts 117°
2026-05-06 16:16 50.21428 9.02116 3997 ft 236 kts 149°
2026-05-06 16:17 50.19894 9.02857 3997 ft 234 kts 180°
2026-05-06 16:17 50.18343 9.02248 3992 ft 232 kts 211°
2026-05-06 16:17 50.17052 9.00731 3997 ft 232 kts 222°
2026-05-06 16:17 50.15867 8.99052 3992 ft 232 kts 223°
2026-05-06 16:18 50.14681 8.97331 3994 ft 233 kts 223°
2026-05-06 16:18 50.13492 8.95600 4001 ft 233 kts 224°
2026-05-06 16:18 50.12480 8.93635 3992 ft 232 kts 239°
2026-05-06 16:18 50.11799 8.91394 3997 ft 231 kts 249°
2026-05-06 16:19 50.11243 8.89045 4003 ft 232 kts 250°
2026-05-06 16:19 50.10698 8.86727 3992 ft 220 kts 250°
2026-05-06 16:19 50.10178 8.84542 3855 ft 211 kts 250°
2026-05-06 16:19 50.09661 8.82410 3581 ft 209 kts 250°
2026-05-06 16:20 50.09156 8.80290 3283 ft 208 kts 250°
2026-05-06 16:20 50.08668 8.78230 3025 ft 201 kts 250°
2026-05-06 16:20 50.08197 8.76254 2727 ft 189 kts 250°
2026-05-06 16:20 50.07747 8.74359 2477 ft 186 kts 250°
2026-05-06 16:21 50.07301 8.72479 2237 ft 184 kts 250°
2026-05-06 16:21 50.06864 8.70651 1991 ft 174 kts 250°
2026-05-06 16:21 50.06456 8.68941 1763 ft 164 kts 250°
2026-05-06 16:21 50.06073 8.67330 1551 ft 153 kts 250°
2026-05-06 16:22 50.05718 8.65839 1354 ft 144 kts 250°
2026-05-06 16:22 50.05381 8.64425 1165 ft 135 kts 250°
2026-05-06 16:22 50.05059 8.63071 1003 ft 132 kts 250°
2026-05-06 16:22 50.04737 8.61724 821 ft 132 kts 250°
2026-05-06 16:23 50.04418 8.60384 647 ft 132 kts 251°
2026-05-06 16:23 50.04097 8.59028 468 ft 134 kts 250°
2026-05-06 16:23 50.03774 8.57672 370 ft 131 kts 250°
2026-05-06 16:23 50.03492 8.56497 362 ft 91 kts 249°
2026-05-06 16:24 50.03346 8.55886 354 ft 45 kts 250°
2026-05-06 16:24 50.03313 8.55521 349 ft 21 kts 276°
2026-05-06 16:24 50.03332 8.55340 349 ft 16 kts 280°
2026-05-06 16:24 50.03357 8.55185 353 ft 13 kts 309°
2026-05-06 16:25 50.03422 8.55196 357 ft 9 kts 50°
2026-05-06 16:25 50.03447 8.55282 355 ft 9 kts 70°
2026-05-06 16:25 50.03469 8.55375 354 ft 10 kts 70°
2026-05-06 16:25 50.03492 8.55474 359 ft 10 kts 70°
2026-05-06 16:26 50.03517 8.55580 360 ft 11 kts 70°
2026-05-06 16:26 50.03544 8.55689 361 ft 11 kts 69°
2026-05-06 16:26 50.03576 8.55822 355 ft 16 kts 69°
2026-05-06 16:26 50.03615 8.55984 360 ft 15 kts 69°
2026-05-06 16:27 50.03648 8.56123 362 ft 12 kts 69°
2026-05-06 16:27 50.03677 8.56242 367 ft 11 kts 70°
2026-05-06 16:27 50.03702 8.56350 367 ft 10 kts 69°
2026-05-06 16:27 50.03726 8.56447 364 ft 9 kts 69°
2026-05-06 16:28 50.03746 8.56532 366 ft 8 kts 69°
2026-05-06 16:28 50.03764 8.56609 359 ft 9 kts 69°
2026-05-06 16:28 50.03791 8.56722 368 ft 12 kts 70°
2026-05-06 16:28 50.03817 8.56829 360 ft 9 kts 69°
2026-05-06 16:29 50.03837 8.56911 367 ft 8 kts 69°
2026-05-06 16:29 50.03872 8.57058 367 ft 24 kts 70°
2026-05-06 16:29 50.03930 8.57301 376 ft 22 kts 69°
2026-05-06 16:29 50.03976 8.57499 376 ft 18 kts 70°
2026-05-06 16:30 50.04015 8.57664 375 ft 15 kts 70°
2026-05-06 16:30 50.04038 8.57760 372 ft 14 kts 70°
2026-05-06 16:30 50.04078 8.57927 373 ft 11 kts 69°
2026-05-06 16:30 50.04105 8.58037 373 ft 12 kts 69°
2026-05-06 16:31 50.04146 8.58135 376 ft 11 kts 37°
2026-05-06 16:31 50.04228 8.58199 376 ft 14 kts 22°
2026-05-06 16:31 50.04296 8.58199 375 ft 9 kts 339°
2026-05-06 16:31 50.04361 8.58160 376 ft 11 kts 339°
2026-05-06 16:32 50.04444 8.58111 377 ft 15 kts 339°
2026-05-06 16:32 50.04533 8.58059 371 ft 14 kts 340°
2026-05-06 16:32 50.04623 8.58009 365 ft 13 kts 340°
2026-05-06 16:32 50.04633 8.58003 368 ft 0 kts 340°
2026-05-06 16:33 50.04637 8.58001 365 ft 1 kts 340°
2026-05-06 16:34 50.04654 8.57991 369 ft 9 kts 340°
2026-05-06 16:34 50.04711 8.57910 364 ft 11 kts 263°
2026-05-06 16:34 50.04682 8.57790 367 ft 13 kts 249°
2026-05-06 16:34 50.04651 8.57660 368 ft 13 kts 249°
2026-05-06 16:35 50.04634 8.57590 366 ft 0 kts 249°
2026-05-06 16:35 50.04627 8.57562 364 ft 9 kts 249°
2026-05-06 16:35 50.04622 8.57461 363 ft 10 kts 279°
2026-05-06 16:36 50.04667 8.57396 365 ft 9 kts
2026-05-06 16:36 50.04726 8.57420 364 ft 7 kts 22°
2026-05-06 16:36 50.04751 8.57455 362 ft 1 kts 47°
2026-05-06 16:36 50.04751 8.57456 366 ft 0 kts 47°